Regional Weather Roundup
Issued by NWS

Home | Current Version | Previous Version | Graphics & Text | Print | Product List | Glossary On
Versions: 1 2 3 4 5 6 7 8 9 10 11 12 13 14 15 16 17 18 19 20 21 22 23 24 25 26 27 28 29 30 31 32 33 34 35 36 37 38 39 40 41 42 43 44 45 46 47 48 49 50
000
ASUS43 KLSX 220957
RWRMO

WEATHER SUMMARY FOR MISSOURI
NATIONAL WEATHER SERVICE SPRINGFIELD MO
500 AM CDT SUN APR 22 2018

NOTE: "FAIR" INDICATES FEW OR NO CLOUDS BELOW 12,000 FEET WITH NO
       SIGNIFICANT WEATHER AND/OR OBSTRUCTIONS TO VISIBILITY.
       CURRENT SKY AND/OR WEATHER CONDITIONS ARE NOT AVAILABLE FOR
       CHILLICOTHE AND FARMINGTON.

MOZ001>031-035>038-043-044-053-054-221100-
...NORTHERN AND WESTERN MISSOURI...

CITY           SKY/WX    TMP DP  RH WIND       PRES   REMARKS
KANSAS CTY INT LGT RAIN  52  33  48 NE12      30.10S
LEE`S SUMMIT   CLOUDY    52  34  50 E10       30.09R
ST JOSEPH      CLOUDY    52  32  46 NE9       30.13S
CHILLICOTHE      N/A     52  30  43 NE7       30.16R

$$
MOZ066>068-077>081-088>096-101>105-221100-
...SOUTHWEST MISSOURI...

CITY           SKY/WX    TMP DP  RH WIND       PRES   REMARKS
SPRINGFIELD    CLOUDY    55  45  68 E8        29.96S
JOPLIN         RAIN      50  50 100 NE8       29.98F FOG

$$
MOZ032>034-039>042-045>050-055>058-069>072-221100-
...CENTRAL MISSOURI...

CITY           SKY/WX    TMP DP  RH WIND       PRES   REMARKS
COLUMBIA       NOT AVBL
JEFFERSON CITY LGT RAIN  53  40  61 E14       30.10F
ROLLA          LGT RAIN  52  38  58 E13       30.07F
SEDALIA        LGT RAIN  54  40  59 E9        30.09S
WARRENSBURG    LGT RAIN  50  41  71 NE7       30.09S

$$
MOZ051-052-059>065-221100-
...EAST CENTRAL MISSOURI...

CITY           SKY/WX    TMP DP  RH WIND       PRES   REMARKS
ST LOUIS INTL  CLOUDY    54  32  43 E9        30.16S

$$
MOZ072>076-082>087-097>100-106>115-221100-
...SOUTH CENTRAL AND SOUTHEAST MISSOURI...

CITY           SKY/WX    TMP DP  RH WIND       PRES   REMARKS
CAPE GIRARDEAU LGT RAIN  54  49  83 E12       30.13S
POPLAR BLUFF   LGT RAIN  55  52  89 E9        30.07F FOG
WEST PLAINS    CLOUDY    56  47  71 E8G21     30.01S

$$



USA.gov is the U.S. government's official web portal to all federal, state and local government web resources and services.